[[{"header":{"parameterUnit":"m.s-1","parameterCategory":2,"la1":30.2991,"la2":30.254,"lo1":-89.0895,"lo2":-89.0444,"dy":0.0017,"dx":0.0017,"nx":28,"ny":28,"refTime":"2025-05-25T21:00:00:Z","depth":"0","parameterNumber":2,"parameterNumberName":"U-component_of_CURRENTS"},"data":[0,0,0,0,0,0,0,0,0,0,0,0,0,0,0,0,0,0,0,0,0,0,0,0,0,0,0,0,0,0,0,0,0,0,0,0,0,0,0,0,0,0,0,0,0,0,0,0,0,0,0,0,0,0,0,0,0,0,0.2789,0.2789,0,0.2791,0.2791,0.2791,0.2758,0.2757,0.2756,0.2755,0.2805,0.2807,0.2809,0,0,0,0,0,0,0,0,0,0,0,0,0,0.284,0.2839,0.2789,0.2789,0.2789,0.2791,0.2791,0.2791,0.2758,0.2757,0.2756,0.2755,0.2804,0.2807,0.2809,0,0,0,0,0,0,0,0,0,0,0,0,0,0.2827,0.2838,0.2789,0.2772,0.2771,0.2791,0.2791,0.2791,0.2758,0.2757,0.2756,0.2754,0.2803,0.2807,0.281,0.2858,0,0,0.282,0.2821,0,0,0,0,0,0,0,0,0.2828,0.2825,0.2775,0.2773,0.2772,0.2773,0.2827,0.2816,0.2759,0.2763,0.2755,0.2754,0.28,0.2803,0.2806,0.286,0.2862,0.282,0.2822,0.2823,0.2824,0,0,0,0,0,0,0,0.2829,0.2826,0.279,0.2775,0.2773,0.2794,0.279,0.2825,0.279,0.2763,0.276,0.2761,0.2799,0.2803,0.2807,0.2863,0.282,0.2823,0.2825,0.2826,0.2964,0.2966,0,0,0,0,0,0,0.2825,0.2826,0.279,0.279,0.2797,0.2794,0.2789,0.2774,0.2789,0.2789,0.2762,0.2759,0.2798,0.2803,0.2809,0.2891,0.2823,0.2826,0.2828,0.2963,0.2965,0.2967,0,0,0,0,0,0,0.2826,0.2821,0.2789,0.2809,0.2806,0.2794,0.2777,0.2775,0.2772,0.2787,0.2788,0.276,0.2797,0.2804,0.2845,0.2892,0.2828,0.2831,0.2961,0.2963,0.2966,0.304,0,0,0,0,0,0,0.2827,0.2821,0.2819,0.2808,0.2805,0.2804,0.2778,0.2776,0.2774,0.2771,0.2787,0.279,0.2797,0.284,0.2848,0.2895,0.2833,0.2958,0.2962,0.2965,0.3035,0.3045,0.3053,0,0,0,0,0,0.2829,0.2829,0.2818,0.2815,0.2798,0.2805,0.2806,0.2793,0.2776,0.2783,0.2795,0.2789,0.2866,0.2844,0.2853,0.2902,0.2957,0.2961,0.2965,0.3031,0.3043,0.3053,0,0,0,0,0,0,0.2854,0.2826,0.2813,0.2805,0.2806,0.2799,0.2811,0.2796,0.2811,0.2811,0.2814,0.2819,0.2874,0.2876,0.2851,0.295,0.291,0.2916,0.2958,0.2969,0.2978,0.2985,0.2836,0,0,0,0,0,0.2858,0.2847,0.2831,0.2829,0.283,0.282,0.2824,0.2815,0.2822,0.2825,0.2835,0.2858,0.2901,0.2921,0.2951,0.3007,0.3017,0.3043,0.3052,0.3059,0.3071,0.314,0.3157,0.2979,0.2979,0.2979,0,0,0.2867,0.2853,0.2845,0.2834,0.2835,0.2855,0.2819,0.2828,0.2855,0.2833,0.2877,0.2891,0.2921,0.2984,0.3009,0.2989,0.3111,0.3064,0.307,0.3078,0.3146,0.3164,0.3179,0.2982,0.2981,0.2981,0,0,0.2889,0.2868,0.287,0.2878,0.288,0.2883,0.2884,0.2881,0.289,0.293,0.2931,0.2969,0.3015,0.3055,0.308,0.3157,0.3154,0.3163,0.322,0.3287,0.3302,0.3316,0.3334,0.3349,0.3169,0.3169,0.3169,0,0.2905,0.2895,0.2878,0.2896,0.2909,0.2896,0.292,0.2942,0.2954,0.2975,0.2952,0.3041,0.3057,0.3155,0.3177,0.318,0.3198,0.3178,0.33,0.3314,0.3327,0.3341,0.3357,0.3173,0.3172,0.3172,0.3172,0,0.2932,0.2932,0.2942,0.2955,0.2975,0.2991,0.3016,0.3039,0.3043,0.3059,0.3133,0.3161,0.3209,0.3228,0.3228,0.3335,0.331,0.3302,0.3274,0.3349,0.3359,0.3374,0.3179,0.3177,0.3176,0.3175,0,0,0.2933,0.2953,0.2954,0.2965,0.3002,0.3015,0.3082,0.3127,0.3167,0.3198,0.326,0.3331,0.3329,0.3359,0.3372,0.3429,0.3524,0.3406,0.3408,0.3424,0.3646,0.3464,0.3462,0.3543,0.3547,0.3549,0.3609,0,0.2954,0.2985,0.2998,0.3041,0.3058,0.3086,0.3149,0.3198,0.3235,0.3297,0.3348,0.3414,0.3389,0.3419,0.3477,0.3523,0.3569,0.3506,0.3569,0.3571,0.3402,0.3476,0.327,0.3293,0.3623,0.3626,0.3628,0,0.2962,0.2985,0.3022,0.3069,0.3081,0.3115,0.3194,0.3251,0.335,0.3383,0.3457,0.3492,0.3598,0.3555,0.3676,0.3638,0.3647,0.3666,0.3669,0.3486,0.3417,0.3275,0.3307,0.3231,0.365,0.3648,0.3646,0,0.2942,0.299,0.3015,0.3033,0.31,0.3129,0.3174,0.3268,0.3326,0.3445,0.3494,0.3607,0.3663,0.373,0.375,0.3734,0.3855,0.3838,0.3679,0.3665,0.3493,0.3457,0.3458,0.3917,0.3917,0.3917,0.3916,0,0.2933,0.2948,0.3002,0.3013,0.3063,0.3121,0.3184,0.325,0.3361,0.3431,0.3534,0.3603,0.3712,0.3779,0.3797,0.3769,0.3893,0.3699,0.3681,0.3506,0.3472,0.3397,0.3386,0.3919,0.3918,0.3918,0.3917,0,0.2884,0.2917,0.2948,0.302,0.3044,0.3079,0.3171,0.3226,0.3336,0.3437,0.3484,0.3627,0.3692,0.3758,0.3851,0.3796,0.3677,0.3763,0.3517,0.3466,0.3197,0.3196,0.2995,0.2928,0.3605,0.3601,0.3598,0,0.2852,0.2867,0.2939,0.2964,0.2987,0.3045,0.3093,0.32,0.3259,0.343,0.3476,0.3581,0.36,0.3652,0.3585,0.356,0.3517,0.3362,0.3285,0.3157,0.3147,0.3,0.2952,0.3096,0.3089,0.3083,0.3078,0,0.2818,0.2845,0.2883,0.2926,0.2964,0.2999,0.3066,0.3108,0.3237,0.33,0.3382,0.3415,0.342,0.3278,0.3223,0.3201,0.3152,0.3233,0.3202,0.2822,0.2568,0.2501,0.3063,0.3026,0.3031,0.3035,0.3038,0.304,0.2804,0.2813,0.2864,0.2885,0.2921,0.2929,0.2912,0.298,0.302,0.3054,0.3182,0.312,0.3063,0.292,0.2877,0.2666,0.2718,0.2577,0.2611,0.2492,0.2336,0.2736,0.2605,0.2608,0.261,0.2612,0.2614,0,0.2781,0.2791,0.282,0.2825,0.2801,0.2843,0.2871,0.2816,0.2777,0.2813,0.2802,0.2662,0.2491,0.2446,0.2233,0.2093,0.2006,0.2055,0.1873,0.1886,0.2337,0.2224,0.188,0.188,0.188,0.188,0.1881,0.1881,0.2784,0.2778,0.2766,0.2695,0.268,0.2585,0.2558,0.2494,0.2468,0.2311,0.2184,0.2165,0.2148,0.1964,0.1777,0.1747,0.1644,0.1438,0.1561,0.1953,0.2006,0.2057,0.1949,0.1553,0.1553,0.0966,0.0962,0.0959]},{"header":{"parameterUnit":"m.s-1","parameterCategory":2,"la1":30.2991,"la2":30.254,"lo1":-89.0895,"lo2":-89.0444,"dy":0.0017,"dx":0.0017,"nx":28,"ny":28,"refTime":"2025-05-25T21:00:00:Z","depth":"0","parameterNumber":3,"parameterNumberName":"V-component_of_CURRENTS"},"data":[0,0,0,0,0,0,0,0,0,0,0,0,0,0,0,0,0,0,0,0,0,0,0,0,0,0,0,0,0,0,0,0,0,0,0,0,0,0,0,0,0,0,0,0,0,0,0,0,0,0,0,0,0,0,0,0,0,0,0.0451,0.0451,0,0.0471,0.0472,0.0472,0.0468,0.0468,0.0467,0.0467,0.0486,0.0486,0.0487,0,0,0,0,0,0,0,0,0,0,0,0,0,0.041,0.0411,0.0451,0.0451,0.0451,0.0471,0.0472,0.0472,0.0468,0.0468,0.0467,0.0467,0.0485,0.0486,0.0487,0,0,0,0,0,0,0,0,0,0,0,0,0,0.0429,0.0411,0.045,0.0452,0.0452,0.0471,0.0472,0.0472,0.0468,0.0468,0.0467,0.0467,0.0485,0.0486,0.0488,0.0506,0,0,0.0491,0.0492,0,0,0,0,0,0,0,0,0.0428,0.043,0.0451,0.0452,0.0452,0.0467,0.0464,0.0483,0.0468,0.0462,0.0467,0.0466,0.048,0.0481,0.0486,0.0506,0.0507,0.0491,0.0492,0.0493,0.0493,0,0,0,0,0,0,0,0.0427,0.043,0.0459,0.0452,0.0452,0.0452,0.0454,0.0468,0.0473,0.0462,0.0462,0.0465,0.048,0.0485,0.0487,0.0508,0.0491,0.0492,0.0493,0.0494,0.0554,0.0555,0,0,0,0,0,0,0.0425,0.0428,0.0458,0.0459,0.0439,0.0453,0.0456,0.0462,0.0473,0.0474,0.0465,0.0465,0.0483,0.0485,0.0487,0.0535,0.0493,0.0494,0.0495,0.0553,0.0554,0.0555,0,0,0,0,0,0,0.0424,0.0428,0.0457,0.0444,0.0448,0.0455,0.0462,0.0463,0.0469,0.0476,0.0477,0.047,0.0483,0.0485,0.0508,0.0535,0.0494,0.0495,0.0552,0.0554,0.0555,0.0615,0,0,0,0,0,0,0.0423,0.0427,0.0432,0.0444,0.0449,0.0474,0.0463,0.0464,0.0471,0.0471,0.048,0.0481,0.0483,0.0506,0.0509,0.0536,0.0496,0.0551,0.0553,0.0555,0.0611,0.0618,0.0623,0,0,0,0,0,0.0422,0.0433,0.0432,0.0435,0.0454,0.0475,0.0478,0.048,0.0472,0.0482,0.0489,0.0481,0.0518,0.0508,0.0511,0.0539,0.055,0.0552,0.0554,0.0609,0.0616,0.0623,0,0,0,0,0,0,0.0416,0.0434,0.0433,0.0448,0.0462,0.0474,0.0483,0.0483,0.0496,0.0496,0.0495,0.0498,0.0526,0.0522,0.0511,0.0559,0.0532,0.0535,0.0572,0.0579,0.0585,0.0608,0.0497,0,0,0,0,0,0.0418,0.0432,0.0446,0.0459,0.0466,0.0474,0.0482,0.0486,0.0499,0.0503,0.0511,0.052,0.0538,0.0549,0.0559,0.059,0.0579,0.0608,0.0613,0.0619,0.0639,0.0644,0.0653,0.0562,0.0562,0.0562,0,0,0.0418,0.0431,0.0438,0.0459,0.0469,0.05,0.0478,0.0496,0.0528,0.0504,0.0545,0.054,0.0548,0.0582,0.0595,0.0584,0.0634,0.0621,0.0625,0.0643,0.0647,0.0656,0.0664,0.0563,0.0563,0.0563,0,0,0.0439,0.044,0.0464,0.0482,0.0503,0.0514,0.0521,0.0538,0.055,0.0583,0.0577,0.059,0.0613,0.063,0.064,0.0684,0.0661,0.0681,0.0738,0.0743,0.075,0.0757,0.0736,0.074,0.0689,0.0689,0.0689,0,0.0439,0.0477,0.0473,0.0507,0.0534,0.0525,0.0568,0.0582,0.0606,0.0628,0.0604,0.0648,0.0642,0.07,0.0711,0.0701,0.0689,0.0712,0.0751,0.0758,0.0764,0.074,0.0745,0.0692,0.0691,0.0691,0.0691,0,0.0489,0.0518,0.0535,0.058,0.0604,0.0638,0.0661,0.0684,0.069,0.0705,0.0748,0.074,0.077,0.0763,0.0752,0.08,0.0771,0.0754,0.0735,0.0777,0.0749,0.0752,0.0696,0.0695,0.0694,0.0693,0,0,0.05,0.0559,0.0567,0.0608,0.065,0.0681,0.0732,0.0785,0.0831,0.0833,0.0895,0.0901,0.0887,0.0897,0.088,0.0881,0.0893,0.084,0.0839,0.0823,0.0888,0.0841,0.0839,0.0882,0.0884,0.0885,0.0844,0,0.0545,0.0625,0.0644,0.0728,0.0776,0.0794,0.085,0.0892,0.0914,0.0966,0.0959,0.1002,0.0942,0.096,0.0952,0.0921,0.0908,0.0905,0.0848,0.0846,0.0803,0.0845,0.0861,0.0825,0.0847,0.0848,0.0848,0,0.0597,0.0649,0.0737,0.0823,0.0846,0.0891,0.0983,0.1033,0.109,0.1107,0.1135,0.1127,0.1148,0.108,0.1044,0.1044,0.0974,0.0929,0.0926,0.0871,0.0807,0.0791,0.0829,0.0828,0.0853,0.0852,0.0852,0,0.0629,0.0717,0.0793,0.0823,0.0913,0.0958,0.1009,0.1075,0.1141,0.1203,0.1254,0.1252,0.1276,0.1201,0.1101,0.1079,0.1042,0.0997,0.0884,0.0878,0.0877,0.0869,0.0916,0.0962,0.0962,0.0963,0.0963,0,0.0681,0.0741,0.0813,0.0859,0.0962,0.1004,0.1114,0.1159,0.1245,0.1347,0.1331,0.1406,0.1309,0.1275,0.1152,0.1036,0.1078,0.0909,0.0878,0.0894,0.0889,0.0873,0.0848,0.0961,0.0961,0.0962,0.0962,0,0.0708,0.0751,0.0847,0.0945,0.0981,0.1056,0.1182,0.1267,0.1332,0.1467,0.1499,0.1533,0.1491,0.1364,0.1248,0.1117,0.0978,0.0934,0.0945,0.0916,0.0796,0.0771,0.0755,0.075,0.0811,0.081,0.0809,0,0.073,0.0782,0.0904,0.0971,0.1017,0.1128,0.1218,0.1305,0.1406,0.1554,0.1635,0.1637,0.1656,0.1456,0.1232,0.1011,0.096,0.0869,0.0828,0.0812,0.0762,0.0751,0.0749,0.0839,0.0838,0.0838,0.0837,0,0.0782,0.082,0.0902,0.1031,0.1131,0.1252,0.1382,0.1472,0.1603,0.1715,0.1845,0.1866,0.1693,0.1504,0.12,0.1037,0.0879,0.0848,0.0852,0.0812,0.0787,0.076,0.0822,0.0832,0.0833,0.0833,0.0833,0.0833,0.0821,0.0881,0.0984,0.1107,0.122,0.1362,0.147,0.1618,0.178,0.1948,0.1965,0.1999,0.1755,0.1351,0.1158,0.0847,0.0831,0.0752,0.0727,0.072,0.072,0.0753,0.0714,0.0714,0.0714,0.0714,0.0713,0,0.0873,0.0942,0.1057,0.1201,0.1315,0.1372,0.1574,0.1691,0.1882,0.2005,0.2091,0.1976,0.1694,0.1387,0.0974,0.0789,0.0731,0.0695,0.0719,0.0723,0.078,0.0788,0.0741,0.0741,0.0741,0.0741,0.0741,0.0741,0.0908,0.1009,0.1063,0.1246,0.1346,0.1507,0.162,0.1801,0.1926,0.2057,0.2063,0.2055,0.1881,0.1249,0.0895,0.079,0.0731,0.0652,0.0634,0.0709,0.0715,0.072,0.0726,0.0666,0.0666,0.0624,0.0623,0.0623]}],[{"header":{"parameterUnit":"m.s-1","parameterCategory":2,"la1":30.2991,"la2":30.254,"lo1":-89.0895,"lo2":-89.0444,"dy":0.0017,"dx":0.0017,"nx":28,"ny":28,"refTime":"2025-05-25T21:00:00:Z","depth":"2","parameterNumber":2,"parameterNumberName":"U-component_of_CURRENTS"},"data":[0,0,0,0,0,0,0,0,0,0,0,0,0,0,0,0,0,0,0,0,0,0,0,0,0,0,0,0,0,0,0,0,0,0,0,0,0,0,0,0,0,0,0,0,0,0,0,0,0,0,0,0,0,0,0,0,0,0,0.2545,0.2545,0,0.2534,0.2534,0.2534,0.251,0.251,0.251,0.251,0.2529,0.253,0.2531,0,0,0,0,0,0,0,0,0,0,0,0,0,0.2576,0.2575,0.2545,0.2545,0.2545,0.2534,0.2534,0.2534,0.251,0.251,0.251,0.251,0.2529,0.253,0.2531,0,0,0,0,0,0,0,0,0,0,0,0,0,0.2561,0.2575,0.2545,0.2535,0.2534,0.2534,0.2534,0.2533,0.2511,0.251,0.251,0.251,0.2529,0.253,0.2531,0.2543,0,0,0.2534,0.2534,0,0,0,0,0,0,0,0,0.2562,0.2559,0.2536,0.2535,0.2534,0.2526,0.2552,0.2539,0.2511,0.2516,0.251,0.2509,0.2533,0.2534,0.2528,0.2544,0.2545,0.2534,0.2535,0.2535,0.2535,0,0,0,0,0,0,0,0.2563,0.256,0.2538,0.2536,0.2535,0.2541,0.2538,0.2549,0.2525,0.2516,0.2515,0.2518,0.2532,0.2527,0.2528,0.2545,0.2534,0.2535,0.2536,0.2536,0.2604,0.2605,0,0,0,0,0,0,0.2569,0.2561,0.2538,0.2538,0.2551,0.2541,0.2538,0.2527,0.2524,0.2524,0.2519,0.2517,0.2525,0.2527,0.2529,0.2597,0.2535,0.2536,0.2537,0.2603,0.2604,0.2605,0,0,0,0,0,0,0.2569,0.2566,0.2539,0.2552,0.255,0.2541,0.2529,0.2527,0.2529,0.2526,0.2526,0.2525,0.2525,0.2527,0.2551,0.2595,0.2537,0.2538,0.2601,0.2603,0.2605,0.2699,0,0,0,0,0,0,0.257,0.2566,0.2567,0.2552,0.2549,0.2551,0.2529,0.2527,0.2533,0.2531,0.2532,0.2532,0.2525,0.2549,0.2552,0.2596,0.2538,0.26,0.2602,0.2604,0.2694,0.2703,0.2711,0,0,0,0,0,0.2571,0.2573,0.2567,0.2565,0.2548,0.2552,0.2551,0.2542,0.2534,0.2542,0.2542,0.2533,0.2565,0.2551,0.2554,0.2599,0.2599,0.2601,0.2604,0.269,0.2702,0.2711,0,0,0,0,0,0,0.259,0.257,0.2564,0.256,0.2563,0.2549,0.2559,0.2551,0.2556,0.2558,0.2548,0.2549,0.259,0.2575,0.256,0.2622,0.2581,0.2584,0.2645,0.2656,0.2665,0.2666,0.2539,0,0,0,0,0,0.2594,0.2588,0.2578,0.2579,0.2582,0.2573,0.2576,0.2571,0.2571,0.2572,0.2572,0.2578,0.2602,0.2612,0.2623,0.2655,0.2651,0.2684,0.2693,0.27,0.2702,0.2753,0.2767,0.2614,0.2614,0.2614,0,0,0.2602,0.2593,0.2589,0.2584,0.2583,0.2595,0.2573,0.2584,0.2599,0.2576,0.26,0.2612,0.2617,0.2658,0.2674,0.2652,0.2739,0.2704,0.271,0.2708,0.2757,0.2772,0.2786,0.2616,0.2615,0.2615,0,0,0.2616,0.2608,0.2609,0.2614,0.2621,0.2621,0.2628,0.2625,0.263,0.2658,0.2652,0.2688,0.2706,0.2726,0.2738,0.2798,0.2786,0.2802,0.2849,0.2899,0.2913,0.2924,0.2929,0.2941,0.2803,0.2804,0.2804,0,0.2629,0.262,0.2614,0.2623,0.2627,0.2636,0.2644,0.2662,0.2668,0.2683,0.2679,0.2735,0.2744,0.2803,0.2827,0.2823,0.2829,0.2814,0.2913,0.2924,0.2935,0.2937,0.2949,0.2808,0.2808,0.2807,0.2807,0,0.2638,0.2641,0.2648,0.2656,0.2665,0.2678,0.2696,0.2725,0.274,0.2751,0.2811,0.2832,0.2865,0.2883,0.2878,0.2958,0.2931,0.2924,0.2891,0.2957,0.2954,0.2964,0.2815,0.2814,0.2812,0.2811,0,0,0.2631,0.2649,0.265,0.2658,0.2679,0.2686,0.2735,0.2769,0.2812,0.2843,0.2896,0.2951,0.2965,0.2979,0.2988,0.3031,0.3116,0.3013,0.3013,0.3025,0.3201,0.3062,0.3059,0.3135,0.3137,0.3139,0.3166,0,0.2638,0.2649,0.2658,0.2684,0.2689,0.2722,0.2766,0.2807,0.2851,0.2914,0.2959,0.3022,0.3002,0.3044,0.3084,0.3116,0.3149,0.3107,0.3128,0.3128,0.3005,0.3069,0.2807,0.2799,0.3176,0.3177,0.3179,0,0.2629,0.2639,0.265,0.269,0.2698,0.2731,0.28,0.2842,0.2938,0.2975,0.3045,0.3088,0.3168,0.3149,0.3224,0.3201,0.3207,0.3219,0.322,0.3064,0.3009,0.2796,0.2803,0.3195,0.3194,0.3193,0.3192,0,0.26,0.263,0.2635,0.2645,0.2699,0.2734,0.2781,0.2864,0.2913,0.3033,0.309,0.3173,0.3233,0.3274,0.3296,0.328,0.3362,0.3341,0.3212,0.3201,0.2965,0.2928,0.3394,0.3394,0.3394,0.3394,0.3394,0,0.2583,0.2592,0.2632,0.2641,0.2677,0.2722,0.2793,0.2859,0.2967,0.3023,0.3124,0.3181,0.3275,0.3329,0.3332,0.3293,0.3391,0.3226,0.3209,0.2985,0.2952,0.3282,0.3269,0.3395,0.3395,0.3395,0.3395,0,0.254,0.2563,0.2583,0.2644,0.2663,0.2694,0.2796,0.2854,0.2961,0.3048,0.3098,0.3217,0.3263,0.332,0.3382,0.3321,0.3319,0.3278,0.2985,0.2932,0.311,0.3102,0.3137,0.3133,0.3129,0.3126,0.3123,0,0.2518,0.252,0.257,0.2586,0.2618,0.2676,0.272,0.2835,0.2893,0.3039,0.3072,0.3176,0.318,0.3206,0.3142,0.3107,0.3225,0.2849,0.2766,0.3109,0.309,0.3087,0.3084,0.249,0.2483,0.2477,0.2472,0,0.2483,0.2502,0.2521,0.2548,0.2589,0.261,0.2687,0.2728,0.285,0.291,0.2959,0.2984,0.2993,0.2817,0.2786,0.274,0.2833,0.2716,0.3184,0.2587,0.2499,0.248,0.2498,0.2416,0.2422,0.2426,0.2429,0.2431,0.2461,0.246,0.2485,0.2493,0.2533,0.2519,0.2505,0.2563,0.2592,0.2627,0.2747,0.2671,0.267,0.2448,0.2346,0.2266,0.2464,0.236,0.238,0.2407,0.2319,0.2228,0.2075,0.2079,0.2082,0.2084,0.2087,0,0.2414,0.241,0.2426,0.2416,0.2399,0.2448,0.2452,0.2392,0.2337,0.2386,0.2381,0.2146,0.1993,0.1998,0.1756,0.1722,0.1724,0.167,0.1655,0.1711,0.176,0.164,0.1217,0.1214,0.1212,0.121,0,0,0.2395,0.237,0.2353,0.2269,0.2267,0.2177,0.2143,0.2059,0.2035,0.192,0.1849,0.1966,0.1963,0.1595,0.1513,0.1322,0.1524,0.127,0.1969,0.2011,0.2058,0.2155,0.2032,0,0,0,0,0]},{"header":{"parameterUnit":"m.s-1","parameterCategory":2,"la1":30.2991,"la2":30.254,"lo1":-89.0895,"lo2":-89.0444,"dy":0.0017,"dx":0.0017,"nx":28,"ny":28,"refTime":"2025-05-25T21:00:00:Z","depth":"2","parameterNumber":3,"parameterNumberName":"V-component_of_CURRENTS"},"data":[0,0,0,0,0,0,0,0,0,0,0,0,0,0,0,0,0,0,0,0,0,0,0,0,0,0,0,0,0,0,0,0,0,0,0,0,0,0,0,0,0,0,0,0,0,0,0,0,0,0,0,0,0,0,0,0,0,0,0.0318,0.0318,0,0.0334,0.0334,0.0334,0.0334,0.0334,0.0333,0.0333,0.0339,0.0339,0.034,0,0,0,0,0,0,0,0,0,0,0,0,0,0.0277,0.0278,0.0318,0.0318,0.0318,0.0334,0.0334,0.0334,0.0334,0.0334,0.0333,0.0333,0.0339,0.0339,0.034,0,0,0,0,0,0,0,0,0,0,0,0,0,0.0293,0.0278,0.0318,0.0321,0.0321,0.0334,0.0334,0.0334,0.0334,0.0334,0.0333,0.0333,0.0339,0.0339,0.034,0.0346,0,0,0.0341,0.0341,0,0,0,0,0,0,0,0,0.0292,0.0294,0.032,0.0321,0.0321,0.0332,0.0321,0.0338,0.0334,0.0328,0.0333,0.0333,0.0337,0.0337,0.0339,0.0346,0.0346,0.0341,0.0341,0.0341,0.0341,0,0,0,0,0,0,0,0.0291,0.0294,0.0323,0.032,0.0321,0.0318,0.032,0.0324,0.0332,0.0328,0.0329,0.0332,0.0337,0.0339,0.0339,0.0346,0.0341,0.0341,0.0342,0.0342,0.0366,0.0366,0,0,0,0,0,0,0.0292,0.0293,0.0323,0.0324,0.0307,0.0319,0.0321,0.0328,0.0332,0.0333,0.0332,0.0332,0.0338,0.0339,0.034,0.0372,0.0341,0.0342,0.0342,0.0365,0.0366,0.0366,0,0,0,0,0,0,0.0291,0.0295,0.0322,0.0309,0.0312,0.032,0.0328,0.0329,0.0335,0.0336,0.0336,0.0339,0.0338,0.0339,0.0353,0.0371,0.0342,0.0342,0.0365,0.0365,0.0366,0.0421,0,0,0,0,0,0,0.029,0.0294,0.0299,0.0309,0.0313,0.0336,0.0328,0.0329,0.0338,0.0338,0.0341,0.0341,0.0338,0.0352,0.0353,0.0371,0.0343,0.0364,0.0365,0.0366,0.0419,0.0423,0.0427,0,0,0,0,0,0.0288,0.0298,0.0299,0.0303,0.032,0.0337,0.0339,0.0342,0.0338,0.0346,0.0349,0.0341,0.0357,0.0353,0.0354,0.0373,0.0364,0.0365,0.0366,0.0417,0.0422,0.0427,0,0,0,0,0,0,0.028,0.0299,0.03,0.0314,0.0327,0.0337,0.0344,0.0346,0.0354,0.0355,0.0351,0.0352,0.0369,0.036,0.0356,0.038,0.0357,0.0359,0.0396,0.0401,0.0405,0.0418,0.0343,0,0,0,0,0,0.0281,0.0296,0.031,0.0321,0.0329,0.0337,0.0343,0.0349,0.0358,0.0361,0.0365,0.0366,0.0373,0.0379,0.0381,0.0398,0.0379,0.0407,0.0412,0.0415,0.0425,0.0416,0.0421,0.0369,0.0369,0.0369,0,0,0.0281,0.0294,0.0301,0.0321,0.033,0.0354,0.034,0.0357,0.0379,0.0361,0.0389,0.0383,0.038,0.04,0.0406,0.0396,0.0417,0.0417,0.042,0.0428,0.0418,0.0423,0.0428,0.037,0.037,0.037,0,0,0.0295,0.03,0.032,0.0335,0.0355,0.0365,0.0372,0.0388,0.0397,0.0422,0.0413,0.042,0.0431,0.0435,0.0438,0.0466,0.044,0.0462,0.05,0.0491,0.0496,0.05,0.047,0.0471,0.0466,0.0466,0.0466,0,0.0294,0.0325,0.0327,0.0354,0.0373,0.0374,0.0404,0.0416,0.0435,0.045,0.0438,0.0458,0.0451,0.0479,0.0488,0.0479,0.046,0.0483,0.0498,0.0502,0.0504,0.0474,0.0474,0.0469,0.0468,0.0468,0.0468,0,0.0329,0.0354,0.0368,0.0406,0.0422,0.0449,0.0467,0.0489,0.0497,0.0507,0.0533,0.0523,0.0539,0.0531,0.0521,0.0542,0.0516,0.0504,0.0488,0.0513,0.0479,0.0478,0.0473,0.0472,0.0471,0.047,0,0,0.0334,0.0384,0.0391,0.0425,0.0456,0.0481,0.0516,0.0555,0.0593,0.0592,0.0636,0.063,0.0621,0.0622,0.0605,0.0592,0.0588,0.0561,0.0559,0.0537,0.0555,0.0536,0.0532,0.058,0.0581,0.0581,0.0518,0,0.0367,0.0428,0.0442,0.0508,0.0545,0.0562,0.0602,0.0632,0.0652,0.0693,0.0676,0.0709,0.0657,0.0676,0.0652,0.0617,0.0591,0.0606,0.0529,0.0526,0.0511,0.0533,0.0537,0.0482,0.0517,0.0516,0.0516,0,0.0404,0.0444,0.0508,0.0581,0.0599,0.0638,0.071,0.0747,0.0788,0.0802,0.0814,0.0807,0.0804,0.0755,0.0688,0.07,0.0632,0.0585,0.0581,0.0548,0.0507,0.0464,0.0479,0.0514,0.0515,0.0515,0.0515,0,0.0427,0.0497,0.0553,0.0576,0.0648,0.069,0.0735,0.0784,0.0839,0.0881,0.0925,0.0898,0.0912,0.0827,0.0729,0.0715,0.0642,0.0612,0.052,0.0516,0.0498,0.0493,0.0554,0.0554,0.0554,0.0554,0.0554,0,0.0468,0.0518,0.0574,0.0613,0.0697,0.073,0.0828,0.0865,0.0936,0.1016,0.0989,0.1037,0.0934,0.0883,0.0765,0.0645,0.0666,0.0533,0.0508,0.0515,0.0512,0.0525,0.0523,0.0552,0.0552,0.0553,0.0553,0,0.0494,0.0525,0.0604,0.0685,0.0715,0.0781,0.0902,0.0977,0.1027,0.1133,0.116,0.1154,0.1089,0.0961,0.0829,0.0708,0.0587,0.053,0.0536,0.0513,0.045,0.0451,0.0427,0.0426,0.0426,0.0425,0.0424,0,0.0516,0.0554,0.0653,0.0709,0.0753,0.0854,0.0933,0.1015,0.1104,0.1206,0.1266,0.1243,0.1229,0.1016,0.0819,0.0614,0.0579,0.0468,0.0443,0.0464,0.0441,0.0444,0.0446,0.0427,0.0427,0.0426,0.0426,0,0.056,0.059,0.0655,0.0764,0.0855,0.0958,0.1079,0.1163,0.1272,0.1353,0.143,0.1425,0.1252,0.1056,0.0786,0.0638,0.0504,0.0452,0.0487,0.0465,0.046,0.0439,0.0442,0.0422,0.0423,0.0423,0.0423,0.0423,0.0593,0.0641,0.0723,0.0827,0.0931,0.1049,0.1145,0.1264,0.1392,0.1519,0.1524,0.1501,0.1302,0.095,0.0721,0.0477,0.0494,0.0381,0.0384,0.0387,0.0405,0.04,0.0352,0.0352,0.0352,0.0352,0.0352,0,0.063,0.0685,0.0783,0.0905,0.1013,0.1067,0.1233,0.132,0.1455,0.1557,0.1611,0.1391,0.1189,0.0947,0.06,0.0395,0.0373,0.0303,0.0328,0.0333,0.0338,0.0354,0.0287,0.0286,0.0285,0.0285,0,0,0.0653,0.0735,0.0779,0.094,0.1036,0.1174,0.1268,0.1386,0.1479,0.1544,0.1538,0.1538,0.1252,0.098,0.0708,0.0504,0.0459,0.0447,0.0521,0.059,0.0596,0.0404,0.0438,0,0,0,0,0]}],[{"header":{"parameterUnit":"m.s-1","parameterCategory":2,"la1":30.2991,"la2":30.254,"lo1":-89.0895,"lo2":-89.0444,"dy":0.0017,"dx":0.0017,"nx":28,"ny":28,"refTime":"2025-05-25T21:00:00:Z","depth":"4","parameterNumber":2,"parameterNumberName":"U-component_of_CURRENTS"},"data":[0,0,0,0,0,0,0,0,0,0,0,0,0,0,0,0,0,0,0,0,0,0,0,0,0,0,0,0,0,0,0,0,0,0,0,0,0,0,0,0,0,0,0,0,0,0,0,0,0,0,0,0,0,0,0,0,0,0,0.1615,0.1616,0,0.1649,0.1649,0.1649,0.1686,0.1687,0.1687,0.1688,0.17,0.17,0.1699,0,0,0,0,0,0,0,0,0,0,0,0,0,0.1576,0.1576,0.1615,0.1616,0.1617,0.1649,0.1649,0.1649,0.1686,0.1687,0.1688,0.1689,0.17,0.17,0.1699,0,0,0,0,0,0,0,0,0,0,0,0,0,0.1596,0.1576,0.1615,0.1641,0.1644,0.1649,0.1649,0.1649,0.1685,0.1687,0.1688,0.1689,0.17,0.17,0.1699,0.167,0,0,0.1697,0.1697,0,0,0,0,0,0,0,0,0.1595,0.1597,0.1637,0.164,0.1643,0.1667,0.164,0.1656,0.1685,0.1666,0.1688,0.169,0.1688,0.1689,0.1688,0.167,0.1671,0.1697,0.1696,0.1696,0.1696,0,0,0,0,0,0,0,0.1594,0.1596,0.1625,0.1637,0.1641,0.1649,0.1653,0.1643,0.1667,0.1668,0.1672,0.168,0.169,0.1688,0.1688,0.1671,0.1697,0.1696,0.1696,0.1696,0.1752,0.1754,0,0,0,0,0,0,0.1595,0.1595,0.1624,0.1626,0.1625,0.1649,0.1654,0.1655,0.1668,0.1672,0.1679,0.1682,0.1689,0.1689,0.1689,0.1748,0.1696,0.1695,0.1695,0.175,0.1752,0.1754,0,0,0,0,0,0,0.1594,0.1597,0.1623,0.1614,0.1619,0.1649,0.1651,0.1656,0.1691,0.1677,0.168,0.1714,0.169,0.169,0.1712,0.1746,0.1695,0.1694,0.1748,0.1751,0.1753,0.1807,0,0,0,0,0,0,0.1592,0.1596,0.1615,0.1614,0.162,0.1649,0.165,0.1655,0.1694,0.1698,0.1707,0.1708,0.1691,0.1714,0.1712,0.1744,0.1694,0.1745,0.1749,0.1752,0.1803,0.1812,0.1819,0,0,0,0,0,0.1591,0.1605,0.1615,0.162,0.1638,0.1651,0.1654,0.1677,0.1695,0.1713,0.1723,0.1709,0.1736,0.1714,0.1712,0.1744,0.1743,0.1748,0.1752,0.18,0.181,0.1819,0,0,0,0,0,0,0.16,0.161,0.1622,0.164,0.1658,0.1659,0.1685,0.1697,0.1719,0.1735,0.1721,0.1721,0.1759,0.1745,0.1722,0.1775,0.1742,0.1746,0.178,0.1789,0.1797,0.1788,0.1693,0,0,0,0,0,0.1609,0.1625,0.1634,0.1655,0.1667,0.1682,0.1699,0.1713,0.1726,0.1739,0.1746,0.1758,0.1767,0.1775,0.178,0.1796,0.1793,0.1822,0.183,0.1837,0.1831,0.1875,0.1886,0.1768,0.1768,0.1768,0,0,0.1621,0.163,0.1641,0.166,0.1677,0.1686,0.1696,0.173,0.1745,0.1734,0.1771,0.1787,0.1781,0.1808,0.1824,0.1803,0.1869,0.1842,0.1848,0.1838,0.1881,0.1892,0.1902,0.1771,0.1771,0.177,0,0,0.1633,0.166,0.167,0.1685,0.1717,0.172,0.1738,0.1761,0.1786,0.1814,0.182,0.1854,0.1866,0.1868,0.1868,0.1922,0.1914,0.1941,0.1966,0.201,0.202,0.2028,0.2033,0.2042,0.194,0.194,0.194,0,0.165,0.1656,0.1679,0.169,0.1706,0.1737,0.1748,0.1769,0.1801,0.1826,0.1839,0.1889,0.1889,0.1913,0.1938,0.1938,0.1955,0.1926,0.2019,0.2027,0.2035,0.2039,0.2047,0.1944,0.1943,0.1943,0.1943,0,0.1649,0.1672,0.1684,0.1701,0.1722,0.1744,0.1769,0.1808,0.1847,0.1867,0.193,0.1941,0.197,0.1986,0.1974,0.2034,0.2026,0.2027,0.199,0.205,0.205,0.2058,0.1948,0.1947,0.1946,0.1945,0,0,0.1634,0.1674,0.1682,0.1697,0.1733,0.1746,0.1786,0.1823,0.1861,0.1914,0.1963,0.1996,0.2029,0.2032,0.2041,0.2075,0.2141,0.208,0.2081,0.2076,0.2226,0.2064,0.2056,0.2174,0.2176,0.2178,0.2202,0,0.1628,0.1647,0.1669,0.1697,0.1707,0.1755,0.1785,0.1834,0.1883,0.1941,0.1988,0.2038,0.2038,0.2072,0.2108,0.2142,0.2167,0.2133,0.2176,0.2176,0.2018,0.2062,0.2184,0.2207,0.2209,0.2211,0.2211,0,0.1605,0.1623,0.1647,0.1697,0.171,0.1737,0.1804,0.184,0.1923,0.197,0.2036,0.2077,0.214,0.2137,0.2212,0.22,0.2216,0.2231,0.2233,0.2063,0.2028,0.2138,0.2225,0.2224,0.2223,0.2222,0.2222,0,0.156,0.1606,0.1628,0.1643,0.1701,0.1741,0.1785,0.186,0.1905,0.2004,0.2056,0.2127,0.2188,0.223,0.2263,0.2259,0.2335,0.2328,0.2186,0.2174,0.2289,0.2279,0.2373,0.2373,0.2373,0.2373,0.2373,0,0.152,0.1545,0.1621,0.163,0.1671,0.1732,0.1793,0.1846,0.1941,0.199,0.208,0.212,0.2226,0.2276,0.2287,0.2251,0.2356,0.2184,0.2172,0.231,0.2303,0.2293,0.2284,0.2374,0.2374,0.2374,0.2373,0,0.1463,0.151,0.1543,0.1621,0.1649,0.1688,0.1792,0.183,0.1937,0.2007,0.2048,0.2155,0.221,0.2271,0.2337,0.2266,0.2255,0.2215,0.2343,0.2339,0.2055,0.2049,0.2048,0.2042,0.2038,0.2034,0.203,0,0.143,0.144,0.1526,0.1546,0.1588,0.166,0.1697,0.1812,0.1844,0.1996,0.2005,0.2119,0.2169,0.2122,0.2198,0.2189,0.2166,0.2133,0.2095,0.2034,0.2024,0.2025,0.2025,0.2023,0.2022,0.2021,0.2019,0,0.1364,0.1412,0.144,0.148,0.1526,0.1562,0.1628,0.1647,0.1772,0.1894,0.1915,0.1942,0.1994,0.202,0.2032,0.2024,0.2138,0.2084,0.2093,0.2057,0.2005,0.1999,0.2004,0.2003,0.2006,0.2007,0.2008,0,0.1323,0.1324,0.1367,0.1392,0.1444,0.144,0.1492,0.1524,0.1579,0.1742,0.1744,0.1859,0.1974,0.1933,0.1941,0.1922,0.1888,0.1811,0.1834,0.1853,0.1776,0.168,0.1564,0,0,0,0,0,0.127,0.1251,0.1266,0.1273,0.1325,0.1354,0.1423,0.1479,0.1608,0.1574,0.1655,0.1689,0.171,0.1761,0.1701,0.1846,0.1894,0.1765,0.1817,0.1914,0.1933,0.1859,0,0,0,0,0,0,0.1223,0.1238,0.1228,0.1179,0.117,0.1201,0.1248,0.1332,0.1309,0.1454,0.1471,0.1577,0.162,0.1736,0.1672,0.1685,0.1676,0.1837,0.1832,0.1904,0.192,0.1935,0.1866,0,0,0,0,0]},{"header":{"parameterUnit":"m.s-1","parameterCategory":2,"la1":30.2991,"la2":30.254,"lo1":-89.0895,"lo2":-89.0444,"dy":0.0017,"dx":0.0017,"nx":28,"ny":28,"refTime":"2025-05-25T21:00:00:Z","depth":"4","parameterNumber":3,"parameterNumberName":"V-component_of_CURRENTS"},"data":[0,0,0,0,0,0,0,0,0,0,0,0,0,0,0,0,0,0,0,0,0,0,0,0,0,0,0,0,0,0,0,0,0,0,0,0,0,0,0,0,0,0,0,0,0,0,0,0,0,0,0,0,0,0,0,0,0,0,0.0194,0.0194,0,0.0211,0.0211,0.0211,0.0221,0.0221,0.0221,0.0221,0.0229,0.0229,0.023,0,0,0,0,0,0,0,0,0,0,0,0,0,0.016,0.0161,0.0194,0.0194,0.0194,0.0211,0.0211,0.0211,0.0221,0.0221,0.0221,0.0221,0.0229,0.0229,0.023,0,0,0,0,0,0,0,0,0,0,0,0,0,0.0176,0.0161,0.0194,0.0202,0.0202,0.0211,0.0211,0.0211,0.0221,0.0221,0.0221,0.0221,0.0229,0.0229,0.023,0.0229,0,0,0.023,0.023,0,0,0,0,0,0,0,0,0.0175,0.0177,0.02,0.0201,0.0202,0.0214,0.0202,0.0217,0.0221,0.0213,0.0221,0.0221,0.0224,0.0224,0.0227,0.0229,0.023,0.023,0.0231,0.0231,0.0231,0,0,0,0,0,0,0,0.0174,0.0176,0.02,0.02,0.0202,0.0201,0.0203,0.0205,0.0217,0.0214,0.0215,0.0217,0.0224,0.0227,0.0227,0.023,0.023,0.0231,0.0231,0.0231,0.0243,0.0244,0,0,0,0,0,0,0.0173,0.0175,0.02,0.0201,0.0189,0.0201,0.0204,0.021,0.0217,0.0219,0.0217,0.0218,0.0226,0.0227,0.0227,0.0245,0.0231,0.0231,0.0231,0.0243,0.0243,0.0244,0,0,0,0,0,0,0.0172,0.0175,0.0199,0.0188,0.0192,0.0202,0.0208,0.021,0.0219,0.022,0.0221,0.0225,0.0226,0.0227,0.0238,0.0245,0.0231,0.0231,0.0243,0.0243,0.0244,0.0269,0,0,0,0,0,0,0.0171,0.0175,0.0179,0.0189,0.0192,0.021,0.0208,0.021,0.022,0.0221,0.0227,0.0227,0.0226,0.0238,0.0238,0.0245,0.0231,0.0243,0.0243,0.0243,0.0268,0.027,0.0272,0,0,0,0,0,0.017,0.0176,0.0179,0.0182,0.0198,0.021,0.0212,0.0219,0.022,0.0227,0.0232,0.0228,0.024,0.0239,0.0239,0.0246,0.0243,0.0243,0.0243,0.0267,0.027,0.0272,0,0,0,0,0,0,0.0162,0.0178,0.0182,0.0192,0.0203,0.0212,0.0218,0.0223,0.0232,0.0235,0.0234,0.0235,0.0246,0.0242,0.024,0.0249,0.0239,0.0239,0.0257,0.0259,0.0261,0.0264,0.0232,0,0,0,0,0,0.0163,0.0174,0.0186,0.0195,0.0201,0.021,0.0216,0.0223,0.0232,0.0236,0.0242,0.0244,0.0247,0.025,0.0253,0.026,0.0244,0.0263,0.0265,0.0267,0.0269,0.0252,0.0253,0.0245,0.0245,0.0245,0,0,0.0162,0.0172,0.0178,0.0195,0.0203,0.0218,0.0214,0.0228,0.0242,0.0235,0.0256,0.0254,0.0251,0.0261,0.0264,0.0259,0.0259,0.0267,0.0269,0.027,0.0253,0.0253,0.0254,0.0245,0.0245,0.0245,0,0,0.0168,0.0176,0.0189,0.0201,0.0217,0.0225,0.023,0.0245,0.0254,0.0271,0.0268,0.027,0.0279,0.0277,0.0276,0.0289,0.0271,0.029,0.0303,0.0287,0.0288,0.0288,0.0262,0.026,0.029,0.029,0.029,0,0.0167,0.0188,0.0194,0.0211,0.0226,0.023,0.0251,0.0258,0.0276,0.0287,0.0282,0.0291,0.0286,0.0294,0.0297,0.0294,0.0279,0.0296,0.029,0.029,0.029,0.0263,0.0261,0.0292,0.0291,0.0291,0.0291,0,0.0186,0.0205,0.0214,0.024,0.0254,0.0272,0.0286,0.03,0.0309,0.0317,0.033,0.0319,0.0326,0.032,0.0313,0.0311,0.0299,0.0295,0.0284,0.0292,0.0264,0.026,0.0293,0.0293,0.0293,0.0292,0,0,0.0184,0.0221,0.0226,0.0251,0.0274,0.0293,0.0313,0.0338,0.0361,0.036,0.0383,0.0371,0.0364,0.0362,0.0349,0.0329,0.0309,0.0314,0.0312,0.0289,0.0267,0.0259,0.0254,0.0306,0.0306,0.0305,0.0245,0,0.0202,0.0243,0.0256,0.03,0.0326,0.034,0.0364,0.0385,0.0397,0.0417,0.0398,0.0412,0.0381,0.0386,0.0361,0.0331,0.0302,0.0325,0.0262,0.026,0.0253,0.0251,0.0305,0.0243,0.0242,0.0241,0.0241,0,0.0222,0.025,0.0294,0.0348,0.036,0.0386,0.0433,0.0458,0.0475,0.0484,0.0481,0.0467,0.0446,0.0417,0.0353,0.0371,0.0319,0.0283,0.0279,0.0262,0.0246,0.0234,0.0234,0.0235,0.0235,0.0236,0.0236,0,0.0232,0.0282,0.0322,0.0339,0.0391,0.042,0.0451,0.0481,0.0517,0.0528,0.0548,0.0513,0.051,0.0441,0.036,0.0361,0.028,0.0273,0.021,0.0208,0.0222,0.0222,0.0215,0.0216,0.0216,0.0216,0.0216,0,0.0252,0.0288,0.0334,0.036,0.042,0.0448,0.0513,0.0534,0.0575,0.0621,0.0588,0.0601,0.0516,0.0461,0.0375,0.0283,0.0289,0.021,0.0194,0.0233,0.0235,0.0219,0.022,0.0214,0.0214,0.0215,0.0215,0,0.0263,0.0289,0.0344,0.0404,0.0429,0.0477,0.0565,0.0612,0.064,0.0696,0.0703,0.0674,0.0607,0.0506,0.0394,0.0314,0.0218,0.0177,0.0218,0.0207,0.015,0.0154,0.011,0.0109,0.0109,0.0108,0.0108,0,0.0272,0.0299,0.0376,0.0417,0.045,0.0526,0.0583,0.064,0.0689,0.0737,0.0761,0.072,0.0682,0.0516,0.0402,0.0236,0.0206,0.0142,0.0148,0.0151,0.014,0.0145,0.0149,0.0107,0.0107,0.0106,0.0106,0,0.0291,0.0317,0.0364,0.0446,0.0513,0.0592,0.0672,0.0714,0.078,0.0805,0.0809,0.0734,0.0659,0.0524,0.0393,0.0271,0.018,0.0135,0.0136,0.0141,0.0147,0.0138,0.0142,0.0104,0.0104,0.0105,0.0105,0,0.0306,0.0338,0.0398,0.0474,0.0556,0.0634,0.0681,0.0742,0.0794,0.084,0.0835,0.0759,0.0715,0.0542,0.042,0.0303,0.0273,0.0216,0.0212,0.0213,0.0259,0.0282,0.0267,0,0,0,0,0,0.032,0.0355,0.0423,0.0504,0.0586,0.0637,0.073,0.0772,0.083,0.0837,0.0842,0.077,0.0615,0.0547,0.043,0.0401,0.0245,0.0257,0.0174,0.0092,0.0095,0.013,0,0,0,0,0,0,0.0326,0.0385,0.0418,0.0516,0.0575,0.0668,0.0731,0.0775,0.0779,0.0814,0.0734,0.0715,0.0563,0.0678,0.0418,0.0386,0.0311,0.0193,0.0189,0.0091,0.0093,0.0095,0.0132,0,0,0,0,0]}]]